MSG 4 DEB (BAFFLE COVER), 40990

Orbit data source: Space-Track

MSG 4 DEB (BAFFLE COVER), 40990 is space debris in GEO originally from a launch on Wed, 15 Jul 2015 UTC launched from the French Guiana (FRGUI). Debris objects in space refer to the collection of defunct objects orbiting the Earth. Examples of debris include non-operational satellites, rocket bodies, and fragments generated from explosions, collisions, or faulty payload assembly.

Not visible in the next 10 days
Identifier
40990, 2015-034F
Orbit
GEO
Country
Flag of UnknownUnknown / EUME
Related business
Manufacturer
SENER
Mission
Spacecraft
Bus & Motor
MSG COVER, Unknown motor
Mass
~0 kg wet, ~10 kg dry
Launch date (UTC)
2015-07-15 (10 years ago)
Launch vehicle
Unknown
Launch site
French Guiana (FRGUI)
Object type
Payload
Rocket body
Debris
Shape & HBR
Cyl, 0.8 m
Radar Cross Section
1.552 m²

Expand to show TLE details & history
Last TLE update: 2 days ago

TLE from 2 days ago
0 MSG 4 DEB (BAFFLE COVER)
1 40990U 15034F   25305.73393688 -.00000052  00000-0  00000-0 0  9995
2 40990   6.4478  82.4080 0105258 182.6841 177.3036  1.02654786 38564
Epoch: 2025-11-01T17:36Z
TLE epoch observation values (Epoch: 2025-11-01T17:36:52.146Z)
Latitude
-0°
Longitude
136.93268°
Altitude
35,567.113 km
Speed
3.066 km/s
True Right ascension
05h 29m 38s
True Declination
0° 00' 00"
Sunlit
Object was in daylight at epoch
Visualization orbit readout
Latitude
Unknown
Longitude
Unknown
Altitude
Unknown
Speed
Unknown
Apparent Right ascension
Unknown
Apparent Declination
Unknown
Sunlit
N/A
Visualization observer readout
Local Sidereal Time
15:06:50
Azimuth
Unknown
Elevation
Unknown
Doppler factor
Unknown
Orbital elements
Apogee altitude
35,569.51 km
Perigee altitude
34,695.643 km
Semi-major axis
41,510.714 km
Eccentricity
0.01053
Inclination
6.4478°
RAAN
82.408°
Arg. of periapsis
182.6841°
True anomaly
177.35961°
Mean anomaly
177.3036°
Eccentric anomaly
177.33168°
Mean motion
0.25663 °/min
Orbital period
1,402.81 mins
BSTAR
0
Loading maneuver chart data...
Computing Atmospheric mass density...
Loading historical data...
Loading historical data...
Loading historical data...
Loading historical data...
Loading historical data...
Loading historical data...
Loading historical data...

Documentation

Showing up to 5 results
|